TimeEST,TemperatureF,Dew PointF,Humidity,Sea Level PressureIn,VisibilityMPH,Wind Direction,Wind SpeedMPH,Gust SpeedMPH,PrecipitationIn,Events,Conditions,WindDirDegrees,DateUTC
12:53 AM,23.0,19.0,85,30.25,10.0,East,13.8,-,N/A,,Overcast,100,2013-02-22 05:53:00
1:53 AM,24.1,19.0,81,30.27,10.0,East,13.8,-,N/A,,Overcast,100,2013-02-22 06:53:00
2:18 AM,24.8,17.6,74,30.21,10.0,East,16.1,-,N/A,,Overcast,100,2013-02-22 07:18:00
2:53 AM,23.0,18.0,81,30.22,10.0,ESE,12.7,-,N/A,,Overcast,110,2013-02-22 07:53:00
3:49 AM,23.0,17.6,80,30.14,10.0,ESE,17.3,21.9,N/A,,Overcast,120,2013-02-22 08:49:00
3:53 AM,23.0,17.1,78,30.18,10.0,ESE,13.8,-,N/A,,Overcast,120,2013-02-22 08:53:00
4:53 AM,23.0,16.0,74,30.14,10.0,East,11.5,-,N/A,,Overcast,100,2013-02-22 09:53:00
5:53 AM,24.1,16.0,71,30.14,10.0,ESE,13.8,-,N/A,,Overcast,110,2013-02-22 10:53:00
6:53 AM,24.1,17.1,75,30.11,5.0,East,13.8,-,0.00,Snow,Light Snow,90,2013-02-22 11:53:00
7:39 AM,23.0,17.6,80,30.03,1.8,East,16.1,-,0.02,Snow,Light Snow,80,2013-02-22 12:39:00
7:53 AM,23.0,18.0,81,30.05,2.0,East,17.3,-,0.03,Snow,Light Snow,80,2013-02-22 12:53:00
8:06 AM,23.0,17.6,80,30.00,1.0,East,17.3,-,0.00,Snow,Light Snow,80,2013-02-22 13:06:00
8:14 AM,23.0,19.4,86,30.00,1.0,East,18.4,-,0.00,Snow,Light Snow,80,2013-02-22 13:14:00
8:20 AM,23.0,19.4,86,30.00,0.5,East,15.0,24.2,0.01,Fog-Snow,Snow,90,2013-02-22 13:20:00
8:38 AM,23.0,19.4,86,29.99,0.5,East,15.0,-,N/A,Fog-Snow,Light Snow,90,2013-02-22 13:38:00
8:46 AM,24.8,19.4,80,29.99,0.5,East,15.0,-,0.03,Snow,Snow,90,2013-02-22 13:46:00
8:53 AM,24.1,19.0,81,30.02,0.5,East,16.1,-,0.03,Snow,Snow,90,2013-02-22 13:53:00
9:44 AM,24.8,19.4,80,29.97,0.5,East,12.7,-,0.02,Fog-Snow,Snow,100,2013-02-22 14:44:00
9:48 AM,24.8,19.4,80,29.96,0.2,East,11.5,-,0.03,Fog-Snow,Snow,100,2013-02-22 14:48:00
9:53 AM,24.1,19.9,84,30.00,0.2,East,11.5,-,0.03,Fog-Snow,Heavy Snow,90,2013-02-22 14:53:00
10:04 AM,24.8,19.4,80,29.96,0.5,East,11.5,-,0.02,Fog-Snow,Snow,100,2013-02-22 15:04:00
10:23 AM,24.8,21.2,86,29.95,0.2,ESE,11.5,-,0.04,Fog-Snow,Snow,120,2013-02-22 15:23:00
10:37 AM,24.8,21.2,86,29.95,0.8,ESE,11.5,-,0.05,Snow,Light Snow,120,2013-02-22 15:37:00
10:48 AM,26.6,21.2,80,29.94,2.5,ESE,11.5,-,0.05,Snow,Light Snow,110,2013-02-22 15:48:00
10:53 AM,26.1,21.0,81,29.97,2.5,ESE,13.8,-,0.05,Snow,Light Snow,110,2013-02-22 15:53:00
11:00 AM,26.6,21.2,80,29.93,4.0,ESE,12.7,-,0.00,,Haze,110,2013-02-22 16:00:00
11:16 AM,28.4,21.2,74,29.92,9.0,SE,13.8,-,0.00,,Overcast,130,2013-02-22 16:16:00
11:53 AM,28.9,21.9,75,29.96,4.0,SE,16.1,-,0.00,,Haze,130,2013-02-22 16:53:00
12:53 PM,28.9,23.0,78,29.94,4.0,SE,13.8,-,0.00,,Haze,140,2013-02-22 17:53:00
1:03 PM,28.4,23.0,80,29.90,7.0,SE,12.7,-,N/A,,Overcast,140,2013-02-22 18:03:00
1:53 PM,30.0,24.1,79,29.91,10.0,SSE,9.2,-,N/A,,Overcast,160,2013-02-22 18:53:00
2:53 PM,30.0,25.0,82,29.91,8.0,SE,6.9,-,N/A,,Overcast,140,2013-02-22 19:53:00
3:20 PM,30.2,26.6,86,29.88,9.0,South,8.1,-,N/A,,Overcast,170,2013-02-22 20:20:00
3:53 PM,30.0,26.1,85,29.91,8.0,SSE,6.9,-,N/A,,Overcast,150,2013-02-22 20:53:00
4:53 PM,30.9,27.0,85,29.90,6.0,SSE,9.2,-,N/A,,Overcast,150,2013-02-22 21:53:00
5:53 PM,30.9,28.0,89,29.90,4.0,South,6.9,-,N/A,,Overcast,180,2013-02-22 22:53:00
6:53 PM,30.9,28.0,89,29.91,5.0,South,8.1,-,N/A,,Overcast,170,2013-02-22 23:53:00
7:53 PM,32.0,28.9,88,29.91,4.0,South,6.9,-,N/A,,Overcast,190,2013-02-23 00:53:00
8:53 PM,33.1,30.0,89,29.90,5.0,South,5.8,-,N/A,,Overcast,190,2013-02-23 01:53:00
9:53 PM,33.1,30.0,89,29.89,5.0,SSW,9.2,-,0.00,,Overcast,200,2013-02-23 02:53:00
10:32 PM,33.8,30.2,87,29.86,4.0,SSW,8.1,-,0.00,Snow,Light Snow,200,2013-02-23 03:32:00
10:43 PM,33.8,30.2,87,29.86,5.0,SSW,6.9,-,0.00,Snow,Light Snow,200,2013-02-23 03:43:00
10:53 PM,33.1,30.0,89,29.89,5.0,SSW,8.1,-,0.00,,Overcast,210,2013-02-23 03:53:00
11:01 PM,33.8,30.2,87,29.86,6.0,SSW,6.9,-,N/A,,Overcast,210,2013-02-23 04:01:00
11:08 PM,33.8,30.2,87,29.86,7.0,SW,6.9,-,N/A,,Overcast,220,2013-02-23 04:08:00
11:18 PM,33.8,30.2,87,29.86,8.0,SW,6.9,-,N/A,,Overcast,220,2013-02-23 04:18:00
11:28 PM,33.8,30.2,87,29.86,8.0,SSW,6.9,-,N/A,,Overcast,210,2013-02-23 04:28:00
11:53 PM,34.0,30.0,85,29.88,9.0,SW,9.2,-,N/A,,Overcast,220,2013-02-23 04:53:00